This is the latest recevied weather packets stored in our database for station/object KC4JIR. If no packets are shown the sender has not sent any weather packets the latest 10 day(s).
| Time | Temp. | Humidity | Pressure | Rain* | Wind** | Luminosity | Snow |
|---|---|---|---|---|---|---|---|
| 1778145962 | 19.44° C | 99% | 1010.4 hPa | 1.78 mm | - | 0 W/m² | - |
| 1778145658 | 19.44° C | 99% | 1010.7 hPa | 0 mm | - | 0 W/m² | - |
| 1778145355 | 19.44° C | 99% | 1010.2 hPa | 0 mm | - | 0 W/m² | - |
| 1778145051 | 19.44° C | 99% | 1010.3 hPa | 1.27 mm | - | 0 W/m² | - |
| 1778144747 | 19.44° C | 99% | 1010.3 hPa | 1.27 mm | - | 0 W/m² | - |
| 1778144444 | 19.44° C | 99% | 1010.5 hPa | 0 mm | - | 0 W/m² | - |
| 1778144141 | 19.44° C | 99% | 1010.3 hPa | 0 mm | - | 0 W/m² | - |
| 1778143838 | 19.44° C | 99% | 1010 hPa | 1.78 mm | - | 0 W/m² | - |
| 1778143534 | 19.44° C | 99% | 1010.6 hPa | 1.78 mm | - | 0 W/m² | - |
| 1778143232 | 19.44° C | 99% | 1010.3 hPa | 0 mm | - | 0 W/m² | - |
| 1778142928 | 19.44° C | 99% | 1009.6 hPa | 0 mm | - | 0 W/m² | - |
| 1778142625 | 19.44° C | 99% | 1009.1 hPa | 0 mm | - | 0 W/m² | - |
| 1778142321 | 19.44° C | 99% | 1009.3 hPa | 0 mm | - | 0 W/m² | - |
| 1778142017 | 19.44° C | 99% | 1009.3 hPa | 0 mm | - | 0 W/m² | - |
| 1778141714 | 19.44° C | 99% | 1009.6 hPa | 0 mm | - | 0 W/m² | - |
| 1778141411 | 19.44° C | 99% | 1009.5 hPa | 7.11 mm | - | 0 W/m² | - |
| 1778141106 | 19.44° C | 99% | 1009.3 hPa | 7.11 mm | - | 0 W/m² | - |
| 1778140803 | 19.44° C | 99% | 1009.6 hPa | 0 mm | - | 0 W/m² | - |
| 1778140498 | 19.44° C | 99% | 1010.1 hPa | 1.78 mm | - | 0 W/m² | - |
| 1778140195 | 19.44° C | 99% | 1010 hPa | 3.56 mm | - | 0 W/m² | - |
| 1778139892 | 19.44° C | 99% | 1010 hPa | 18.54 mm | - | 0 W/m² | - |
| 1778139590 | 19.44° C | 99% | 1011.2 hPa | 16.76 mm | - | 0 W/m² | - |
| 1778139286 | 19.44° C | 99% | 1012.6 hPa | 14.99 mm | - | 0 W/m² | - |
| 1778138983 | 19.44° C | 99% | 1012.9 hPa | 34.8 mm | - | 0 W/m² | - |
| 1778138680 | 19.44° C | 99% | 1011.8 hPa | 82.3 mm | - | 0 W/m² | - |
* Rain latest hour (hover to see other rain measurements)
** Current wind speed in m/s (hover to see current wind gust speed)